Home > Weather > Potosi > Past weeks

Flag for Bolivia Past Weather in Potosi, Bolivia — Yesterday and Last 2 Weeks

Now
48 °F

Clear.


Feels Like: 48 °F
Forecast: 24 / 51 °F
Wind: No wind

Location: Cochabamba Airport

Current Time: Jul 1, 2016 at 2:14:24 AM

Latest Report: Jul 1, 2016 at 2:00 AM


Visibility: N/A

Pressure: 30.33 "Hg (18.70 "Hg at 3993m altitude)

Humidity: 54%

Dew Point: 32 °F

Location of PotosiLocation

Past Weather in Potosi — Graph

°F

Potosi Temperature Yesterday

Maximum temperature yesterday: 79 °F (at 5:00 PM)
Minimum temperature yesterday: 39 °F (at 7:00 AM)
Average temperature yesterday: 59 °F

High & Low Weather Summary for the Past Weeks

 TemperatureHumidityPressure
High79 °F (Jun 16, 3:00 PM)76% (Jun 17, 6:00 AM)30.42 "Hg (Jun 17, 6:00 AM)
Low39 °F (Jun 19, 7:00 AM)5% (Jun 22, 5:00 PM)30.07 "Hg (Jun 24, 3:00 PM)
Average58 °F40%30.27 "Hg
* Reported Jun 16 1:00 AM — Jul 1 1:00 AM, Potosi, Weather by CustomWeather, © 2016

Note: Actual official high and low records may vary slightly from our data, if they occured in-between our weather recording intervals... More about our weather records

Advertising

Potosi Weather History for the Previous 24 Hours

Scroll right to see more
 ConditionsComfort  
Time TempWeatherWind HumidityBarometerVisibility
1:00 AM
Fri, Jul 1
50 °FClear.No wind54%30.33 "HgN/A
12:00 AM50 °FClear.No wind50%30.33 "HgN/A
11:00 PM
Thu, Jun 30
54 °FClear.No wind41%30.33 "HgN/A
10:00 PM57 °FClear.No wind33%30.30 "HgN/A
9:00 PM61 °FPassing clouds.5 mph27%30.27 "HgN/A
8:00 PM64 °FPassing clouds.No wind24%30.27 "HgN/A
7:00 PM66 °FPassing clouds.5 mph28%30.24 "HgN/A
6:00 PM73 °FPassing clouds.5 mph17%30.21 "HgN/A
5:00 PM79 °FPassing clouds.No wind8%30.21 "HgN/A
4:00 PM77 °FPassing clouds.5 mph11%30.21 "HgN/A
3:00 PM75 °FPassing clouds.3 mph13%30.24 "HgN/A
2:00 PM75 °FPassing clouds.2 mph14%30.27 "HgN/A
1:00 PM73 °FClear.3 mph17%30.33 "HgN/A
12:00 PM70 °FClear.No wind20%30.36 "Hg6 mi
11:00 AM68 °FClear.No wind24%30.39 "Hg6 mi
10:00 AM61 °FClear.No wind31%30.42 "Hg5 mi
9:00 AM55 °FClear.No wind38%30.42 "Hg5 mi
8:00 AM43 °FClear.No wind71%30.39 "Hg5 mi
7:00 AM39 °FClear.No wind75%30.36 "Hg4 mi
6:00 AM41 °FClear.No wind66%30.36 "HgN/A
5:00 AM41 °FClear.No wind66%30.33 "HgN/A
4:00 AM43 °FClear.No wind66%30.33 "HgN/A
3:00 AM45 °FClear.No wind61%30.30 "HgN/A
2:00 AM46 °FClear.No wind57%30.33 "HgN/A
Weather by CustomWeather, © 2016

See weather overviewHow to use our weather pages